(233321) = 2006 BP194

Discovered at Kitt Peak on 2006-01-30 by Spacewatch.

Orbit

Orbit type: Main Belt

Note: WebGL enabled browser required.

epoch2023-09-13.0
epoch JD2460200.5
perihelion date2020-05-18.63431
perihelion JD2458988.13431
argument of perihelion (°)262.81835
ascending node (°)156.38943
inclination (°)5.10670
eccentricity0.2174788
perihelion distance (AU)1.8781448
Tisserand w.r.t. Jupiter3.5
ΔV w.r.t. Earth (km/sec)8.7
semimajor axis (AU)2.4001201
mean anomaly (°)321.35718
mean daily motion (°/day)0.26506620
aphelion distance (AU)2.922
period (years)3.72
P-vector [x]0.51034889
P-vector [y]0.81996203
P-vector [z]0.25924172
Q-vector [x]-0.85922817
Q-vector [y]0.47369230
Q-vector [z]0.19324220
absolute magnitude17.09
phase slope0.15
uncertainty0
referenceMPEC 2024-A165
observations used468
oppositions16
arc length (days)9599
first opposition used1997
last opposition used2024
residual rms (arc-secs)0.74
perturbers coarse indicatorM-v
perturbers precise indicator003Ek
first observation date used1997-10-02.0
last observation date used2024-01-14.0
computer nameMPCLINUX
JD of orbit computation2456847.857920
perihelion JD uncertainty (days)4.7333E-05
argument of perihelion uncertainty (°)5.4278E-05
ascending node uncertainty (°)5.2422E-05
inclination uncertainty (°)5.4168E-06
eccentricity uncertainty 4.8611E-08
perihelion distance uncertainty (AU)1.1961E-07
Minimum Orbit Intersection Distances (in AU)
for orbit epoch: 2460200.5, reference: E2024-AG5
Mercury1.56842
Venus1.15904
Earth0.89751
Mars0.39568
Jupiter2.43808
Saturn6.94039
Uranus15.8112
Neptune27.6487

Observations

475 total observations over interval: 1997 10 02.89196 – 2024 01 14.107083
These data are available for download (format description).

Date (UT) J2000 RA J2000 Dec Magn Location Ref
1997 10 02.89196 01 22 11.44 +01 52 22.3 19.6 V 910 – Caussols-ODAS MPS 165184
1997 10 02.91479 01 22 10.42 +01 52 10.0 19.6 V 910 – Caussols-ODAS MPS 165184
1997 10 02.93775 01 22 09.41 +01 51 58.0 19.6 V 910 – Caussols-ODAS MPS 165184
2002 01 09.24108 05 39 26.87 +14 50 11.5 19.5   704 – Lincoln Laboratory ETS, New Mexico MPS 165184
2002 01 09.25650 05 39 26.28 +14 50 14.8 19.6   704 – Lincoln Laboratory ETS, New Mexico MPS 165184
2002 01 09.27291 05 39 25.62 +14 50 19.2 19.9   704 – Lincoln Laboratory ETS, New Mexico MPS 165184
2002 01 09.28835 05 39 24.94 +14 50 23.4 19.9   704 – Lincoln Laboratory ETS, New Mexico MPS 165184
2002 01 09.30389 05 39 24.32 +14 50 26.7 19.6   704 – Lincoln Laboratory ETS, New Mexico MPS 165184
2003 04 29.35290 14 34 42.92 -07 52 09.1 21.3 V 691 – Steward Observatory, Kitt Peak-Spacewatch MPS 165184
2003 04 29.38052 14 34 41.31 -07 52 00.4 21.3 V 691 – Steward Observatory, Kitt Peak-Spacewatch MPS 165184
2003 04 29.40771 14 34 39.77 -07 51 51.8 21.7 V 691 – Steward Observatory, Kitt Peak-Spacewatch MPS 165184
2004 08 15.15086 20 11 10.90 -16 07 08.0 19.3 R 807 – Cerro Tololo Observatory, La Serena MPS 165184
2004 08 15.22673 20 11 06.87 -16 07 31.7   807 – Cerro Tololo Observatory, La Serena MPS 165184
2006 01 08.40941 10 07 38.64 +07 57 58.9 20.4 V G96 – Mt. Lemmon Survey MPS 163955
2006 01 08.41574 10 07 38.49 +07 58 00.0 20.3 V G96 – Mt. Lemmon Survey MPS 163955
2006 01 08.42211 10 07 38.38 +07 58 01.4 20.4 V G96 – Mt. Lemmon Survey MPS 163955
2006 01 08.42845 10 07 38.24 +07 58 02.7 20.7 V G96 – Mt. Lemmon Survey MPS 163955
2006 01 30.29674 09 53 58.88 +09 56 49.5 20.0 V 691 – Steward Observatory, Kitt Peak-Spacewatch MPS 162978
2006 01 30.31409 09 53 57.92 +09 56 57.1 20.1 V 691 – Steward Observatory, Kitt Peak-Spacewatch MPS 162978
2006 01 30.33143 09 53 56.96 +09 57 04.5 20.1 V 691 – Steward Observatory, Kitt Peak-Spacewatch MPS 162978
2006 02 01.36663 09 52 07.03 +10 12 04.6 19.8 V G96 – Mt. Lemmon Survey MPS 162978
2006 02 01.37170 09 52 06.70 +10 12 07.2 19.7 V G96 – Mt. Lemmon Survey MPS 162978
2006 02 01.37681 09 52 06.45 +10 12 09.3 19.7 V G96 – Mt. Lemmon Survey MPS 162978
2006 02 01.38193 09 52 06.16 +10 12 11.4 19.5 V G96 – Mt. Lemmon Survey MPS 162978
2006 02 02.22575 09 51 20.02 +10 18 32.0 19.9 V 691 – Steward Observatory, Kitt Peak-Spacewatch MPS 163288
2006 02 02.24306 09 51 18.96 +10 18 40.3 20.9 V 691 – Steward Observatory, Kitt Peak-Spacewatch MPS 163288
2006 02 02.26037 09 51 18.03 +10 18 47.9 19.8 V 691 – Steward Observatory, Kitt Peak-Spacewatch MPS 163288
2006 02 03.28138 09 50 21.00 +10 26 33.6   691 – Steward Observatory, Kitt Peak-Spacewatch MPS 162978
2006 02 03.29871 09 50 19.98 +10 26 41.9   691 – Steward Observatory, Kitt Peak-Spacewatch MPS 162978
2006 02 03.31604 09 50 18.96 +10 26 49.6   691 – Steward Observatory, Kitt Peak-Spacewatch MPS 162978
2006 02 07.27641 09 46 32.64 +10 57 35.0   691 – Steward Observatory, Kitt Peak-Spacewatch MPS 162978
2006 02 07.29376 09 46 31.61 +10 57 43.2   691 – Steward Observatory, Kitt Peak-Spacewatch MPS 162978
2006 02 07.31110 09 46 30.57 +10 57 51.3   691 – Steward Observatory, Kitt Peak-Spacewatch MPS 162978
2006 02 09.24055 09 44 38.53 +11 13 04.6 19.5 R 644 – Palomar Mountain/NEAT MPS 163288
2006 02 09.26468 09 44 37.09 +11 13 16.0 19.2 R 644 – Palomar Mountain/NEAT MPS 163288
2006 02 09.28541 09 44 35.81 +11 13 25.9 19.6 R 644 – Palomar Mountain/NEAT MPS 163288
2006 02 20.23393 09 34 10.12 +12 39 04.0 19.9 V 703 – Catalina Sky Survey MPS 163955
2006 02 20.24164 09 34 09.76 +12 39 07.5 20.1 V 703 – Catalina Sky Survey MPS 163955
2006 02 20.24935 09 34 09.30 +12 39 10.2 19.7 V 703 – Catalina Sky Survey MPS 163955
2006 02 20.25704 09 34 08.90 +12 39 13.7 19.8 V 703 – Catalina Sky Survey MPS 163955
2006 02 20.26518 09 34 08.43 +12 39 16.8 19.3 V 703 – Catalina Sky Survey MPS 163955
2006 02 20.27275 09 34 07.96 +12 39 20.7 19.6 V 703 – Catalina Sky Survey MPS 163955
2006 02 20.28032 09 34 07.53 +12 39 23.9 19.4 V 703 – Catalina Sky Survey MPS 163955
2006 02 20.28789 09 34 07.10 +12 39 28.7 19.3 V 703 – Catalina Sky Survey MPS 163955
2006 02 24.27365 09 30 37.98 +13 08 50.2 19.9 V G96 – Mt. Lemmon Survey MPS 163955
2006 02 24.27913 09 30 37.69 +13 08 52.1 19.6 V G96 – Mt. Lemmon Survey MPS 163955
2006 02 24.28454 09 30 37.40 +13 08 54.4 19.6 V G96 – Mt. Lemmon Survey MPS 163955
2006 02 24.28994 09 30 37.11 +13 08 57.1 19.8 V G96 – Mt. Lemmon Survey MPS 163955
2006 03 23.17632 09 17 12.62 +15 28 05.1 20.8 V G96 – Mt. Lemmon Survey MPS 167150
2006 03 23.18277 09 17 12.55 +15 28 06.1 20.7 V G96 – Mt. Lemmon Survey MPS 167150
2006 03 23.18913 09 17 12.48 +15 28 07.4 20.8 V G96 – Mt. Lemmon Survey MPS 167150
2006 03 23.19543 09 17 12.44 +15 28 08.6 20.7 V G96 – Mt. Lemmon Survey MPS 167150
2007 06 16.23904 15 39 56.85 -11 52 02.1 21.6 V 691 – Steward Observatory, Kitt Peak-Spacewatch MPS 211068
2007 06 16.25688 15 39 56.03 -11 52 00.5 21.3 V 691 – Steward Observatory, Kitt Peak-Spacewatch MPS 211068
2007 06 16.27456 15 39 55.28 -11 51 59.5 21.9 V 691 – Steward Observatory, Kitt Peak-Spacewatch MPS 211068
2008 08 07.34833 23 26 10.71 -03 27 57.7   691 – Steward Observatory, Kitt Peak-Spacewatch MPS 253564
2008 08 07.36591 23 26 10.40 -03 28 02.0   691 – Steward Observatory, Kitt Peak-Spacewatch MPS 253564
2008 08 07.38350 23 26 10.08 -03 28 06.9   691 – Steward Observatory, Kitt Peak-Spacewatch MPS 253564
2008 08 24.28648 23 18 12.00 -05 12 21.3 20.0   704 – Lincoln Laboratory ETS, New Mexico MPS 254522
2008 08 24.29931 23 18 11.37 -05 12 27.8 19.7   704 – Lincoln Laboratory ETS, New Mexico MPS 254522
2008 08 24.31213 23 18 10.86 -05 12 32.9 19.7   704 – Lincoln Laboratory ETS, New Mexico MPS 254522
2008 08 24.32491 23 18 10.28 -05 12 38.1 19.7   704 – Lincoln Laboratory ETS, New Mexico MPS 254522
2008 09 07.32591 23 07 13.90 -07 10 34.9 18.9 V 703 – Catalina Sky Survey MPS 255890
2008 09 07.33336 23 07 13.51 -07 10 38.3 19.1 V 703 – Catalina Sky Survey MPS 255890
2008 09 07.34077 23 07 13.11 -07 10 43.3 19.3 V 703 – Catalina Sky Survey MPS 255890
2008 09 07.34818 23 07 12.72 -07 10 47.4 18.5 V 703 – Catalina Sky Survey MPS 255890
2008 09 23.24415 22 54 04.28 -09 24 54.3 19.6 V G96 – Mt. Lemmon Survey MPS 256738
2008 09 23.25096 22 54 03.99 -09 24 57.3 19.4 V G96 – Mt. Lemmon Survey MPS 256738
2008 09 23.25766 22 54 03.67 -09 25 00.3 19.4 V G96 – Mt. Lemmon Survey MPS 256738
2008 09 23.26432 22 54 03.34 -09 25 03.2 19.6 V G96 – Mt. Lemmon Survey MPS 256738
2008 09 28.16618 22 50 37.78 -10 00 24.0 19.7   704 – Lincoln Laboratory ETS, New Mexico MPS 257978
2008 09 28.17856 22 50 37.24 -10 00 28.7 19.9   704 – Lincoln Laboratory ETS, New Mexico MPS 257978
2008 09 28.19090 22 50 36.71 -10 00 34.3 20.0   704 – Lincoln Laboratory ETS, New Mexico MPS 257978
2008 09 28.20327 22 50 36.19 -10 00 38.8 19.8   704 – Lincoln Laboratory ETS, New Mexico MPS 257978
2008 09 28.21564 22 50 35.70 -10 00 44.1 20.4   704 – Lincoln Laboratory ETS, New Mexico MPS 257978
2008 09 29.24675 22 49 56.31 -10 07 37.3 19.6 V 703 – Catalina Sky Survey MPS 257978
2008 09 29.25837 22 49 55.88 -10 07 39.6 19.7 V 703 – Catalina Sky Survey MPS 257978
2008 09 29.27002 22 49 55.45 -10 07 45.1 20.2 V 703 – Catalina Sky Survey MPS 257978
2008 09 29.28168 22 49 54.94 -10 07 49.4 19.8 V 703 – Catalina Sky Survey MPS 257978
2009 12 20.48502 12 05 01.57 -00 31 44.6 21.8 V G96 – Mt. Lemmon Survey MPS 308661
2009 12 20.49127 12 05 01.86 -00 31 45.3 22.0 V G96 – Mt. Lemmon Survey MPS 308661
2009 12 20.49767 12 05 02.25 -00 31 47.6 22.1 V G96 – Mt. Lemmon Survey MPS 308661
2009 12 20.50418 12 05 02.61 -00 31 49.3 21.0 V G96 – Mt. Lemmon Survey MPS 308661
2010 02 14.42401 12 24 02.11 -00 31 41.7 20.6 V 691 – Steward Observatory, Kitt Peak-Spacewatch MPS 313271
2010 02 14.44161 12 24 01.69 -00 31 36.0 20.8 V 691 – Steward Observatory, Kitt Peak-Spacewatch MPS 313271
2010 02 14.45922 12 24 01.26 -00 31 30.7 20.6 V 691 – Steward Observatory, Kitt Peak-Spacewatch MPS 313271
2010 02 24.557600 12 18 37.068 +00 30 07.84 20.66 i F51 – Pan-STARRS 1, Haleakala MPS 338854
2010 02 24.567233 12 18 36.669 +00 30 11.77 20.82 i F51 – Pan-STARRS 1, Haleakala MPS 338854
